Previsão horária em Celevichi

Hoje, 3 Agosto, Terça-feira

Tempo Temperatura Precipitação Vento Pressão Humidade
00:00 +13°C° 0 mm 3 m/s 743 mmHg 95%
01:00 +13°C° 0 mm 3 m/s 743 mmHg 95%
02:00 +12°C° 0 mm 3 m/s 743 mmHg 95%
03:00 +12°C° 0 mm 3 m/s 743 mmHg 95%
04:00 +12°C° 0 mm 3 m/s 743 mmHg 95%
05:00 +12°C° 0 mm 3 m/s 743 mmHg 95%
06:00 +13°C° 0 mm 3 m/s 744 mmHg 89%
07:00 +14°C° 0 mm 3 m/s 744 mmHg 84%
08:00 +17°C° 0 mm 4 m/s 745 mmHg 77%
09:00 +18°C° 0 mm 4 m/s 745 mmHg 70%
10:00 +19°C° 0 mm 4 m/s 745 mmHg 63%
11:00 +20°C° 0 mm 4 m/s 745 mmHg 56%
12:00 +21°C° 0 mm 5 m/s 745 mmHg 52%
13:00 +22°C° 0 mm 5 m/s 745 mmHg 49%
14:00 +23°C° 0 mm 5 m/s 745 mmHg 44%
15:00 +22°C° 0 mm 5 m/s 745 mmHg 48%
16:00 +21°C° 0 mm 4 m/s 745 mmHg 52%
17:00 +20°C° 0 mm 4 m/s 746 mmHg 56%
18:00 +19°C° 0 mm 3 m/s 746 mmHg 61%
19:00 +18°C° 0 mm 3 m/s 746 mmHg 67%
20:00 +17°C° 0 mm 3 m/s 746 mmHg 73%
21:00 +16°C° 0 mm 3 m/s 746 mmHg 76%
22:00 +15°C° 0 mm 2 m/s 747 mmHg 80%
23:00 +14°C° 0 mm 2 m/s 747 mmHg 84%

Amanhã, 4 Agosto, Quarta-feira

Tempo Temperatura Precipitação Vento Pressão Humidade
00:00 +14°C° 0 mm 2 m/s 747 mmHg 86%
01:00 +13°C° 0 mm 2 m/s 747 mmHg 88%
02:00 +13°C° 0 mm 2 m/s 747 mmHg 90%
03:00 +12°C° 0 mm 2 m/s 747 mmHg 89%
04:00 +12°C° 0 mm 2 m/s 747 mmHg 89%
05:00 +12°C° 0 mm 2 m/s 747 mmHg 89%
06:00 +14°C° 0 mm 2 m/s 748 mmHg 81%
07:00 +16°C° 0 mm 1 m/s 748 mmHg 73%
08:00 +19°C° 0 mm 1 m/s 748 mmHg 65%
09:00 +20°C° 0 mm 1 m/s 748 mmHg 61%
10:00 +20°C° 0 mm 1 m/s 748 mmHg 58%
11:00 +21°C° 0 mm 1 m/s 748 mmHg 54%
12:00 +23°C° 0 mm 2 m/s 748 mmHg 49%
13:00 +24°C° 0 mm 2 m/s 748 mmHg 45%
14:00 +26°C° 0 mm 2 m/s 747 mmHg 40%
15:00 +24°C° 0.3 mm 2 m/s 747 mmHg 49%
16:00 +23°C° 0.3 mm 2 m/s 747 mmHg 58%
17:00 +20°C° 0.3 mm 2 m/s 746 mmHg 67%
18:00 +19°C° 1 mm 2 m/s 746 mmHg 76%
19:00 +17°C° 1 mm 2 m/s 746 mmHg 85%
20:00 +16°C° 1 mm 3 m/s 746 mmHg 94%
21:00 +16°C° 2 mm 3 m/s 746 mmHg 95%
22:00 +16°C° 2 mm 3 m/s 746 mmHg 96%
23:00 +16°C° 2 mm 3 m/s 746 mmHg 97%

Depois de amanhã, 5 Agosto, Quinta-feira

Tempo Temperatura Precipitação Vento Pressão Humidade
00:00 +16°C° 0 mm 2 m/s 746 mmHg 97%
01:00 +15°C° 0 mm 2 m/s 746 mmHg 97%
02:00 +15°C° 0 mm 2 m/s 745 mmHg 98%
03:00 +15°C° 0 mm 1 m/s 745 mmHg 98%
04:00 +15°C° 0 mm 1 m/s 745 mmHg 98%
05:00 +14°C° 0 mm 0 m/s 745 mmHg 98%
06:00 +15°C° 0 mm 0 m/s 745 mmHg 95%
07:00 +16°C° 0 mm 0 m/s 745 mmHg 92%
08:00 +16°C° 0 mm 0 m/s 745 mmHg 89%
09:00 +20°C° 0 mm 1 m/s 744 mmHg 82%
10:00 +21°C° 0 mm 1 m/s 744 mmHg 74%
11:00 +23°C° 0 mm 1 m/s 744 mmHg 67%
12:00 +23°C° 0.3 mm 1 m/s 744 mmHg 68%
13:00 +23°C° 0.3 mm 1 m/s 744 mmHg 69%
14:00 +23°C° 0.3 mm 1 m/s 743 mmHg 71%
15:00 +22°C° 0.5 mm 1 m/s 743 mmHg 76%
16:00 +22°C° 0.5 mm 1 m/s 743 mmHg 81%
17:00 +21°C° 0.5 mm 1 m/s 743 mmHg 86%
18:00 +19°C° 0.1 mm 2 m/s 743 mmHg 89%
19:00 +19°C° 0.1 mm 2 m/s 743 mmHg 92%
20:00 +18°C° 0.1 mm 3 m/s 742 mmHg 94%
21:00 +18°C° 0 mm 3 m/s 742 mmHg 95%
22:00 +17°C° 0 mm 4 m/s 742 mmHg 95%
23:00 +16°C° 0 mm 5 m/s 741 mmHg 95%

6 Agosto, Sexta-feira

Tempo Temperatura Precipitação Vento Pressão Humidade
00:00 +16°C° 0.4 mm 5 m/s 740 mmHg 96%
01:00 +16°C° 0.4 mm 5 m/s 740 mmHg 97%
02:00 +16°C° 0.4 mm 5 m/s 739 mmHg 97%
03:00 +16°C° 2.5 mm 5 m/s 739 mmHg 97%
04:00 +16°C° 2.5 mm 5 m/s 738 mmHg 98%
05:00 +16°C° 2.5 mm 5 m/s 738 mmHg 98%
06:00 +16°C° 1.1 mm 5 m/s 737 mmHg 98%
07:00 +16°C° 1.1 mm 5 m/s 737 mmHg 98%
08:00 +16°C° 1.1 mm 5 m/s 736 mmHg 98%
09:00 +18°C° 1 mm 4 m/s 736 mmHg 97%
10:00 +18°C° 1 mm 4 m/s 737 mmHg 96%
11:00 +18°C° 1 mm 4 m/s 737 mmHg 96%
12:00 +19°C° 0.1 mm 4 m/s 737 mmHg 94%
13:00 +19°C° 0.1 mm 4 m/s 737 mmHg 93%
14:00 +19°C° 0.1 mm 4 m/s 737 mmHg 91%
15:00 +19°C° 0.1 mm 5 m/s 737 mmHg 89%
16:00 +19°C° 0.1 mm 5 m/s 737 mmHg 86%
17:00 +20°C° 0.1 mm 6 m/s 738 mmHg 84%
18:00 +19°C° 0 mm 6 m/s 738 mmHg 86%
19:00 +17°C° 0 mm 5 m/s 738 mmHg 88%
20:00 +16°C° 0 mm 5 m/s 738 mmHg 90%
21:00 +17°C° 0 mm 4 m/s 739 mmHg 90%
22:00 +17°C° 0 mm 4 m/s 739 mmHg 90%
23:00 +17°C° 0 mm 3 m/s 739 mmHg 90%

7 Agosto, Sábado

Tempo Temperatura Precipitação Vento Pressão Humidade
00:00 +17°C° 0 mm 3 m/s 739 mmHg 91%
01:00 +16°C° 0 mm 3 m/s 739 mmHg 91%
02:00 +16°C° 0 mm 3 m/s 740 mmHg 92%
03:00 +16°C° 0 mm 3 m/s 740 mmHg 92%
04:00 +16°C° 0 mm 3 m/s 740 mmHg 92%
05:00 +16°C° 0 mm 2 m/s 740 mmHg 91%
06:00 +16°C° 0 mm 3 m/s 741 mmHg 89%
07:00 +17°C° 0 mm 3 m/s 741 mmHg 88%
08:00 +17°C° 0 mm 3 m/s 741 mmHg 86%
09:00 +18°C° 0 mm 3 m/s 741 mmHg 82%
10:00 +18°C° 0 mm 4 m/s 742 mmHg 79%
11:00 +19°C° 0 mm 4 m/s 742 mmHg 76%
12:00 +20°C° 0 mm 4 m/s 742 mmHg 73%
13:00 +21°C° 0 mm 4 m/s 742 mmHg 69%
14:00 +21°C° 0 mm 4 m/s 743 mmHg 65%
15:00 +21°C° 0 mm 4 m/s 743 mmHg 66%
16:00 +21°C° 0 mm 3 m/s 743 mmHg 66%
17:00 +21°C° 0 mm 3 m/s 743 mmHg 66%
18:00 +20°C° 0 mm 3 m/s 743 mmHg 73%
19:00 +18°C° 0 mm 2 m/s 744 mmHg 79%
20:00 +18°C° 0 mm 1 m/s 744 mmHg 85%
21:00 +16°C° 0 mm 1 m/s 744 mmHg 87%
22:00 +16°C° 0 mm 1 m/s 744 mmHg 89%
23:00 +15°C° 0 mm 1 m/s 744 mmHg 91%

8 Agosto, Domingo

Tempo Temperatura Precipitação Vento Pressão Humidade
00:00 +15°C° 0 mm 1 m/s 744 mmHg 92%
01:00 +15°C° 0 mm 1 m/s 745 mmHg 93%
02:00 +14°C° 0 mm 1 m/s 745 mmHg 93%
03:00 +14°C° 0 mm 1 m/s 745 mmHg 93%
04:00 +14°C° 0 mm 2 m/s 745 mmHg 94%
05:00 +14°C° 0 mm 2 m/s 745 mmHg 94%
06:00 +15°C° 0 mm 2 m/s 745 mmHg 88%
07:00 +17°C° 0 mm 2 m/s 746 mmHg 81%
08:00 +19°C° 0 mm 2 m/s 746 mmHg 75%
09:00 +21°C° 0 mm 2 m/s 746 mmHg 68%
10:00 +22°C° 0 mm 3 m/s 746 mmHg 62%
11:00 +25°C° 0 mm 3 m/s 746 mmHg 55%
12:00 +26°C° 0 mm 3 m/s 746 mmHg 52%
13:00 +26°C° 0 mm 4 m/s 746 mmHg 48%
14:00 +27°C° 0 mm 4 m/s 746 mmHg 45%
15:00 +27°C° 0 mm 3 m/s 747 mmHg 47%
16:00 +27°C° 0 mm 3 m/s 747 mmHg 48%
17:00 +27°C° 0 mm 2 m/s 747 mmHg 50%
18:00 +25°C° 0 mm 2 m/s 747 mmHg 56%
19:00 +23°C° 0 mm 1 m/s 747 mmHg 63%
20:00 +19°C° 0 mm 0 m/s 747 mmHg 69%
21:00 +21°C° 0 mm 1 m/s 747 mmHg 68%
22:00 +20°C° 0 mm 1 m/s 748 mmHg 68%
23:00 +20°C° 0 mm 1 m/s 748 mmHg 67%
Mostrar mais

Necessitamos do seu Consentimento

A Meteoprog e os seus Fornecedores de Serviços podem armazenar e aceder a dados pessoais como cookies, identificadores do dispositivo ou outras tecnologias semelhantes existentes no seu dispositivo e processar estes dados para personalizar conteúdos e anúncios, assim como funcionalidades nas redes sociais e análise de tráfego.

  • Armazenar e/ou aceder a informações no seu dispositivo

    Os cookies, identificadores do dispositivo ou outras informações podem ser armazenados ou acedidos no seu dispositivo, para os fins acima indicados.

  • Anúncios e conteúdos personalizados, medição de anúncios e conteúdos, dados sobre o público-alvo e desenvolvimento de produtos

    Os anúncios e os conteúdos podem ser personalizados com base num perfil. Podem ser adicionados dados adicionais para uma maior personalização dos anúncios e dos conteúdos. A eficácia dos anúncios e dos conteúdos pode ser medida. Podem ser obtidas informações sobre o público que visualizou os anúncios e os conteúdos. Estes dados podem ser usados para desenvolver ou melhorar sistemas, softwares ou a experiência do utilizador.

Ao clicar em "Eu concordo”, permitirá o uso de cookies, identificadores do dispositivo e web beacons mencionados ou outras tecnologias semelhantes. As configurações do navegador do seu dispositivo podem ser alteradas.

Para certos fins, podem ser invocados interesses legítimos ao invés de consentimento. Pode ler mais informação sobre este assunto na nossa Política de Privacidade e Cookies.